18-07-2023, 00:00:05,    238,    0.0,   11.8,   0.00,   0.00, 1017.4,   93.3, -999.0
18-07-2023, 00:00:15,    238,    0.0,   11.7,   0.00,   0.00, 1017.4,   93.1, -999.0
18-07-2023, 00:00:25,    238,    0.0,   11.7,   0.00,   0.00, 1017.4,   93.3, -999.0
18-07-2023, 00:00:35,    238,    0.0,   11.8,   0.00,   0.00, 1017.4,   93.5, -999.0
18-07-2023, 00:00:45,    238,    0.0,   11.8,   0.00,   0.00, 1017.4,   93.5, -999.0
18-07-2023, 00:00:55,    232,    0.0,   11.8,   0.00,   0.00, 1017.4,   93.3, -999.0
18-07-2023, 00:01:05,    185,    0.0,   11.8,   0.00,   0.00, 1017.4,   93.3, -999.0
18-07-2023, 00:01:15,    186,    0.0,   11.7,   0.00,   0.00, 1017.4,   93.6, -999.0
18-07-2023, 00:01:25,    186,    0.0,   11.8,   0.00,   0.00, 1017.4,   93.9, -999.0
18-07-2023, 00:01:35,    186,    0.0,   11.8,   0.00,   0.00, 1017.4,   94.1, -999.0
18-07-2023, 00:01:45,    185,    0.0,   11.8,   0.00,   0.00, 1017.4,   94.1, -999.0
18-07-2023, 00:01:55,    185,    0.0,   11.7,   0.00,   0.00, 1017.4,   94.1, -999.0
18-07-2023, 00:02:05,    185,    0.0,   11.8,   0.00,   0.00, 1017.4,   94.3, -999.0
18-07-2023, 00:02:15,    186,    0.0,   11.7,   0.00,   0.00, 1017.4,   94.4, -999.0
18-07-2023, 00:02:25,    249,    0.0,   11.7,   0.00,   0.00, 1017.4,   94.7, -999.0
18-07-2023, 00:02:35,    238,    0.0,   11.8,   0.00,   0.00, 1017.4,   94.7, -999.0
18-07-2023, 00:02:45,    238,    0.0,   11.8,   0.00,   0.00, 1017.4,   94.5, -999.0
18-07-2023, 00:02:55,    238,    0.0,   11.7,   0.00,   0.00, 1017.4,   94.2, -999.0
18-07-2023, 00:03:05,    238,    0.0,   11.7,   0.00,   0.00, 1017.4,   94.5, -999.0
18-07-2023, 00:03:15,    237,    0.0,   11.8,   0.00,   0.00, 1017.4,   94.9, -999.0
18-07-2023, 00:03:25,    237,    0.0,   11.8,   0.00,   0.00, 1017.4,   94.9, -999.0
18-07-2023, 00:03:35,    237,    0.0,   11.7,   0.00,   0.00, 1017.4,   94.8, -999.0
18-07-2023, 00:03:45,    236,    0.0,   11.7,   0.00,   0.00, 1017.4,   95.2, -999.0
18-07-2023, 00:03:55,    237,    0.0,   11.8,   0.00,   0.00, 1017.4,   95.2, -999.0
18-07-2023, 00:04:05,    236,    0.0,   11.8,   0.00,   0.00, 1017.4,   95.1, -999.0
18-07-2023, 00:04:15,    236,    0.0,   11.8,   0.00,   0.00, 1017.4,   94.9, -999.0
18-07-2023, 00:04:24,    236,    0.0,   11.7,   0.00,   0.00, 1017.4,   94.8, -999.0
18-07-2023, 00:04:35,    236,    0.0,   11.7,   0.00,   0.00, 1017.4,   94.6, -999.0
18-07-2023, 00:04:45,    236,    0.0,   11.8,   0.00,   0.00, 1017.4,   94.3, -999.0
18-07-2023, 00:04:54,    236,    0.0,   11.8,   0.00,   0.00, 1017.4,   94.4, -999.0
18-07-2023, 00:05:04,    237,    0.0,   11.7,   0.00,   0.00, 1017.4,   94.7, -999.0
18-07-2023, 00:05:15,    235,    0.0,   11.8,   0.00,   0.00, 1017.4,   95.2, -999.0
18-07-2023, 00:05:24,    235,    0.0,   11.8,   0.00,   0.00, 1017.4,   95.0, -999.0
18-07-2023, 00:05:34,    234,    0.0,   11.9,   0.00,   0.00, 1017.4,   94.7, -999.0
18-07-2023, 00:05:44,    235,    0.0,   11.8,   0.00,   0.00, 1017.4,   94.3, -999.0
18-07-2023, 00:05:55,    234,    0.0,   11.8,   0.00,   0.00, 1017.4,   94.4, -999.0
18-07-2023, 00:06:04,    235,    0.0,   11.8,   0.00,   0.00, 1017.4,   94.3, -999.0
18-07-2023, 00:06:14,    235,    0.0,   11.7,   0.00,   0.00, 1017.4,   94.1, -999.0
18-07-2023, 00:06:25,    234,    0.0,   11.7,   0.00,   0.00, 1017.4,   94.0, -999.0
18-07-2023, 00:06:34,    235,    0.0,   11.8,   0.00,   0.00, 1017.4,   94.0, -999.0
18-07-2023, 00:06:44,    234,    0.0,   11.8,   0.00,   0.00, 1017.4,   93.9, -999.0
18-07-2023, 00:06:54,    234,    0.0,   11.8,   0.00,   0.00, 1017.4,   93.9, -999.0
18-07-2023, 00:07:04,    234,    0.0,   11.8,   0.00,   0.00, 1017.4,   93.8, -999.0
18-07-2023, 00:07:14,    234,    0.0,   11.8,   0.00,   0.00, 1017.4,   93.8, -999.0
18-07-2023, 00:07:24,    234,    0.0,   11.8,   0.00,   0.00, 1017.4,   94.3, -999.0
18-07-2023, 00:07:34,    232,    0.0,   11.8,   0.00,   0.00, 1017.4,   94.5, -999.0
18-07-2023, 00:07:44,    232,    0.0,   11.7,   0.00,   0.00, 1017.4,   94.5, -999.0
18-07-2023, 00:07:54,    231,    0.0,   11.8,   0.00,   0.00, 1017.4,   95.0, -999.0
18-07-2023, 00:08:04,    231,    0.0,   11.8,   0.00,   0.00, 1017.4,   95.0, -999.0
18-07-2023, 00:08:14,    231,    0.0,   11.8,   0.00,   0.00, 1017.4,   95.0, -999.0
18-07-2023, 00:08:24,    231,    0.0,   11.8,   0.00,   0.00, 1017.4,   95.1, -999.0
18-07-2023, 00:08:34,    231,    0.0,   11.8,   0.00,   0.00, 1017.4,   95.0, -999.0
18-07-2023, 00:08:44,    231,    0.0,   11.7,   0.00,   0.00, 1017.4,   95.1, -999.0
18-07-2023, 00:08:54,    231,    0.0,   11.7,   0.00,   0.00, 1017.4,   95.4, -999.0
18-07-2023, 00:09:04,    231,    0.0,   11.7,   0.00,   0.00, 1017.4,   95.2, -999.0
18-07-2023, 00:09:14,    232,    0.0,   11.8,   0.00,   0.00, 1017.4,   95.2, -999.0
18-07-2023, 00:09:24,    231,    0.0,   11.8,   0.00,   0.00, 1017.4,   95.2, -999.0
18-07-2023, 00:09:34,    231,    0.0,   11.8,   0.00,   0.00, 1017.4,   95.1, -999.0
18-07-2023, 00:09:44,    231,    0.0,   11.8,   0.00,   0.00, 1017.4,   95.2, -999.0
18-07-2023, 00:09:54,    232,    0.0,   11.7,   0.00,   0.00, 1017.4,   95.2, -999.0
18-07-2023, 00:10:04,    232,    0.0,   11.8,   0.00,   0.00, 1017.4,   95.4, -999.0
18-07-2023, 00:10:14,    231,    0.0,   11.7,   0.00,   0.00, 1017.4,   95.3, -999.0
18-07-2023, 00:10:24,    231,    0.0,   11.7,   0.00,   0.00, 1017.4,   95.5, -999.0
18-07-2023, 00:10:34,    232,    0.0,   11.8,   0.00,   0.00, 1017.4,   95.6, -999.0
18-07-2023, 00:10:44,    231,    0.0,   11.8,   0.00,   0.00, 1017.4,   95.5, -999.0
18-07-2023, 00:10:54,    231,    0.0,   11.7,   0.00,   0.00, 1017.4,   95.3, -999.0
18-07-2023, 00:11:04,    232,    0.0,   11.8,   0.00,   0.00, 1017.4,   95.2, -999.0
18-07-2023, 00:11:14,    232,    0.0,   11.8,   0.00,   0.00, 1017.4,   95.4, -999.0
18-07-2023, 00:11:23,    231,    0.0,   11.8,   0.00,   0.00, 1017.4,   95.8, -999.0
18-07-2023, 00:11:34,    232,    0.0,   11.8,   0.00,   0.00, 1017.4,   95.9, -999.0
18-07-2023, 00:11:44,    231,    0.0,   11.8,   0.00,   0.00, 1017.4,   95.8, -999.0
18-07-2023, 00:11:54,    231,    0.0,   11.8,   0.00,   0.00, 1017.4,   95.7, -999.0
18-07-2023, 00:12:03,    231,    0.0,   11.8,   0.00,   0.00, 1017.4,   95.7, -999.0
18-07-2023, 00:12:14,    232,    0.0,   11.8,   0.00,   0.00, 1017.4,   95.7, -999.0
18-07-2023, 00:12:24,    231,    0.0,   11.8,   0.00,   0.00, 1017.4,   96.2, -999.0
18-07-2023, 00:12:33,    231,    0.0,   11.7,   0.00,   0.00, 1017.4,   96.3, -999.0
18-07-2023, 00:12:43,    232,    0.0,   11.8,   0.00,   0.00, 1017.4,   96.1, -999.0
18-07-2023, 00:12:54,    231,    0.0,   11.8,   0.00,   0.00, 1017.4,   95.9, -999.0
18-07-2023, 00:13:03,    231,    0.0,   11.8,   0.00,   0.00, 1017.4,   95.7, -999.0
18-07-2023, 00:13:13,    232,    0.0,   11.8,   0.00,   0.00, 1017.4,   95.8, -999.0
18-07-2023, 00:13:23,    231,    0.0,   11.8,   0.00,   0.00, 1017.4,   96.1, -999.0
18-07-2023, 00:13:33,    232,    0.0,   11.8,   0.00,   0.00, 1017.4,   96.8, -999.0
18-07-2023, 00:13:43,    231,    0.0,   11.8,   0.00,   0.00, 1017.4,   97.0, -999.0
18-07-2023, 00:13:53,    232,    0.0,   11.9,   0.00,   0.00, 1017.4,   97.0, -999.0
18-07-2023, 00:14:04,    231,    0.0,   11.8,   0.00,   0.00, 1017.4,   96.8, -999.0
18-07-2023, 00:14:13,    232,    0.0,   11.8,   0.00,   0.00, 1017.4,   96.4, -999.0
18-07-2023, 00:14:23,    231,    0.0,   11.8,   0.00,   0.00, 1017.4,   95.8, -999.0
18-07-2023, 00:14:33,    231,    0.0,   11.8,   0.00,   0.00, 1017.4,   95.5, -999.0
18-07-2023, 00:14:43,    232,    0.0,   11.8,   0.00,   0.00, 1017.4,   95.2, -999.0
18-07-2023, 00:14:53,    231,    0.0,   11.8,   0.00,   0.00, 1017.4,   95.4, -999.0
18-07-2023, 00:15:03,    232,    0.0,   11.7,   0.00,   0.00, 1017.4,   95.5, -999.0
18-07-2023, 00:15:13,    231,    0.0,   11.8,   0.00,   0.00, 1017.4,   95.6, -999.0
18-07-2023, 00:15:23,    232,    0.0,   11.8,   0.00,   0.00, 1017.4,   96.3, -999.0
18-07-2023, 00:15:33,    232,    0.0,   11.8,   0.00,   0.00, 1017.4,   96.1, -999.0
18-07-2023, 00:15:43,    231,    0.0,   11.8,   0.00,   0.00, 1017.4,   96.1, -999.0
18-07-2023, 00:15:53,    228,    0.0,   11.8,   0.00,   0.00, 1017.4,   96.2, -999.0
18-07-2023, 00:16:03,    228,    0.0,   11.7,   0.00,   0.00, 1017.4,   96.0, -999.0
18-07-2023, 00:16:13,    228,    0.0,   11.8,   0.00,   0.00, 1017.4,   96.1, -999.0
18-07-2023, 00:16:23,    228,    0.0,   11.7,   0.00,   0.00, 1017.4,   96.2, -999.0
18-07-2023, 00:16:33,    228,    0.0,   11.8,   0.00,   0.00, 1017.4,   96.2, -999.0
18-07-2023, 00:16:43,    228,    0.0,   11.7,   0.00,   0.00, 1017.4,   96.0, -999.0
18-07-2023, 00:16:53,    228,    0.0,   11.8,   0.00,   0.00, 1017.4,   95.9, -999.0
18-07-2023, 00:17:03,    228,    0.0,   11.6,   0.00,   0.00, 1017.4,   96.0, -999.0
18-07-2023, 00:17:13,    228,    0.0,   11.7,   0.00,   0.00, 1017.4,   96.2, -999.0
18-07-2023, 00:17:23,    228,    0.0,   11.7,   0.00,   0.00, 1017.4,   96.3, -999.0
18-07-2023, 00:17:33,    228,    0.0,   11.7,   0.00,   0.00, 1017.4,   96.4, -999.0
18-07-2023, 00:17:43,    228,    0.0,   11.7,   0.00,   0.00, 1017.4,   96.3, -999.0
18-07-2023, 00:17:52,    228,    0.0,   11.7,   0.00,   0.00, 1017.4,   96.3, -999.0
18-07-2023, 00:18:03,    228,    0.0,   11.6,   0.00,   0.00, 1017.4,   96.5, -999.0
18-07-2023, 00:18:13,    228,    0.0,   11.7,   0.00,   0.00, 1017.4,   96.4, -999.0
18-07-2023, 00:18:23,    228,    0.0,   11.6,   0.00,   0.00, 1017.4,   96.5, -999.0
18-07-2023, 00:18:33,    228,    0.0,   11.7,   0.00,   0.00, 1017.4,   97.0, -999.0
18-07-2023, 00:18:43,    228,    0.0,   11.7,   0.00,   0.00, 1017.4,   97.7, -999.0
18-07-2023, 00:18:53,    228,    0.0,   11.6,   0.00,   0.00, 1017.4,   97.8, -999.0
18-07-2023, 00:19:02,    228,    0.0,   11.6,   0.00,   0.00, 1017.4,   98.1, -999.0
18-07-2023, 00:19:13,    228,    0.0,   11.7,   0.00,   0.00, 1017.4,   98.1, -999.0
18-07-2023, 00:19:23,    228,    0.0,   11.7,   0.00,   0.00, 1017.4,   98.4, -999.0
18-07-2023, 00:19:32,    228,    0.0,   11.7,   0.00,   0.00, 1017.4,   98.6, -999.0
18-07-2023, 00:19:42,    228,    0.0,   11.7,   0.00,   0.00, 1017.4,   98.6, -999.0
18-07-2023, 00:19:53,    228,    0.0,   11.7,   0.00,   0.00, 1017.4,   98.7, -999.0
18-07-2023, 00:20:03,    228,    0.0,   11.7,   0.00,   0.00, 1017.4,   98.3, -999.0
18-07-2023, 00:20:12,    228,    0.0,   11.7,   0.00,   0.00, 1017.4,   98.1, -999.0
18-07-2023, 00:20:22,    228,    0.0,   11.7,   0.00,   0.00, 1017.4,   98.2, -999.0
18-07-2023, 00:20:33,    228,    0.0,   11.6,   0.00,   0.00, 1017.4,   98.3, -999.0
18-07-2023, 00:20:42,    228,    0.0,   11.6,   0.00,   0.00, 1017.4,   98.3, -999.0
18-07-2023, 00:20:52,    228,    0.0,   11.7,   0.00,   0.00, 1017.4,   98.4, -999.0
18-07-2023, 00:21:02,    228,    0.0,   11.7,   0.00,   0.00, 1017.4,   98.5, -999.0
18-07-2023, 00:21:12,    228,    0.0,   11.6,   0.00,   0.00, 1017.4,   98.4, -999.0
18-07-2023, 00:21:22,    228,    0.0,   11.6,   0.00,   0.00, 1017.4,   98.6, -999.0
18-07-2023, 00:21:32,    228,    0.0,   11.7,   0.00,   0.00, 1017.4,   98.7, -999.0
18-07-2023, 00:21:42,    228,    0.0,   11.7,   0.00,   0.00, 1017.4,   98.7, -999.0
18-07-2023, 00:21:52,    228,    0.0,   11.7,   0.00,   0.00, 1017.4,   98.6, -999.0
18-07-2023, 00:22:02,    228,    0.0,   11.7,   0.00,   0.00, 1017.4,   98.7, -999.0
18-07-2023, 00:22:12,    228,    0.0,   11.7,   0.00,   0.00, 1017.4,   98.7, -999.0
18-07-2023, 00:22:22,    228,    0.0,   11.8,   0.00,   0.00, 1017.4,   98.7, -999.0
18-07-2023, 00:22:32,    228,    0.0,   11.7,   0.00,   0.00, 1017.4,   98.7, -999.0
18-07-2023, 00:22:42,    228,    0.0,   11.7,   0.00,   0.00, 1017.4,   98.6, -999.0
18-07-2023, 00:22:52,    227,    0.0,   11.8,   0.00,   0.00, 1017.4,   98.5, -999.0
18-07-2023, 00:23:02,    228,    0.0,   11.8,   0.00,   0.00, 1017.4,   98.7, -999.0
18-07-2023, 00:23:12,    228,    0.0,   11.6,   0.00,   0.00, 1017.4,   98.6, -999.0
18-07-2023, 00:23:22,    228,    0.0,   11.7,   0.00,   0.00, 1017.4,   98.5, -999.0
18-07-2023, 00:23:32,    227,    0.0,   11.7,   0.00,   0.00, 1017.4,   98.7, -999.0
18-07-2023, 00:23:42,    228,    0.0,   11.7,   0.00,   0.00, 1017.4,   98.7, -999.0
18-07-2023, 00:23:52,    228,    0.0,   11.7,   0.00,   0.00, 1017.4,   98.6, -999.0
18-07-2023, 00:24:02,    227,    0.0,   11.7,   0.00,   0.00, 1017.4,   98.7, -999.0
18-07-2023, 00:24:12,    228,    0.0,   11.7,   0.00,   0.00, 1017.4,   98.7, -999.0
18-07-2023, 00:24:22,    227,    0.0,   11.7,   0.00,   0.00, 1017.4,   98.6, -999.0
18-07-2023, 00:24:32,    227,    0.0,   11.8,   0.00,   0.00, 1017.4,   98.7, -999.0
18-07-2023, 00:24:42,    227,    0.0,   11.8,   0.00,   0.00, 1017.4,   98.7, -999.0
18-07-2023, 00:24:52,    227,    0.0,   11.7,   0.00,   0.00, 1017.4,   98.6, -999.0
18-07-2023, 00:25:02,    226,    0.0,   11.7,   0.00,   0.00, 1017.4,   98.7, -999.0
18-07-2023, 00:25:12,    227,    0.0,   11.7,   0.00,   0.00, 1017.4,   98.6, -999.0
18-07-2023, 00:25:22,    227,    0.0,   11.7,   0.00,   0.00, 1017.4,   98.7, -999.0
18-07-2023, 00:25:32,    227,    0.0,   11.7,   0.00,   0.00, 1017.4,   98.6, -999.0
18-07-2023, 00:25:42,    227,    0.0,   11.6,   0.00,   0.00, 1017.4,   98.6, -999.0
18-07-2023, 00:25:52,    227,    0.0,   11.6,   0.00,   0.00, 1017.4,   98.7, -999.0
18-07-2023, 00:26:02,    227,    0.0,   11.6,   0.00,   0.00, 1017.4,   98.6, -999.0
18-07-2023, 00:26:11,    227,    0.0,   11.7,   0.00,   0.00, 1017.4,   98.7, -999.0
18-07-2023, 00:26:22,    227,    0.0,   11.6,   0.00,   0.00, 1017.4,   98.7, -999.0
18-07-2023, 00:26:32,    227,    0.0,   11.6,   0.00,   0.00, 1017.3,   98.7, -999.0
18-07-2023, 00:26:41,    227,    0.0,   11.7,   0.00,   0.00, 1017.4,   98.7, -999.0
18-07-2023, 00:26:51,    227,    0.0,   11.7,   0.00,   0.00, 1017.4,   98.6, -999.0
18-07-2023, 00:27:02,    227,    0.0,   11.7,   0.00,   0.00, 1017.4,   98.7, -999.0
18-07-2023, 00:27:12,    232,    0.0,   11.6,   0.00,   0.00, 1017.4,   98.7, -999.0
18-07-2023, 00:27:21,    231,    0.0,   11.7,   0.00,   0.00, 1017.4,   98.7, -999.0
18-07-2023, 00:27:31,    232,    0.0,   11.6,   0.00,   0.00, 1017.4,   98.7, -999.0
18-07-2023, 00:27:42,    232,    0.0,   11.6,   0.00,   0.00, 1017.3,   98.6, -999.0
18-07-2023, 00:27:51,    232,    0.0,   11.6,   0.00,   0.00, 1017.4,   98.6, -999.0
18-07-2023, 00:28:01,    232,    0.0,   11.7,   0.00,   0.00, 1017.4,   98.7, -999.0
18-07-2023, 00:28:11,    232,    0.0,   11.7,   0.00,   0.00, 1017.4,   98.6, -999.0
18-07-2023, 00:28:21,    232,    0.0,   11.7,   0.00,   0.00, 1017.4,   98.6, -999.0
18-07-2023, 00:28:31,    232,    0.0,   11.8,   0.00,   0.00, 1017.4,   98.7, -999.0
18-07-2023, 00:28:41,    232,    0.0,   11.7,   0.00,   0.00, 1017.4,   98.7, -999.0
18-07-2023, 00:28:51,    232,    0.0,   11.8,   0.00,   0.00, 1017.4,   98.6, -999.0
18-07-2023, 00:29:01,    232,    0.0,   11.7,   0.00,   0.00, 1017.4,   98.6, -999.0
18-07-2023, 00:29:11,    232,    0.0,   11.7,   0.00,   0.00, 1017.4,   98.6, -999.0
18-07-2023, 00:29:21,    232,    0.0,   11.7,   0.00,   0.00, 1017.4,   98.6, -999.0
18-07-2023, 00:29:31,    232,    0.0,   11.7,   0.00,   0.00, 1017.4,   98.7, -999.0
18-07-2023, 00:29:41,    232,    0.0,   11.5,   0.00,   0.00, 1017.4,   98.9, -999.0
18-07-2023, 00:29:51,    232,    0.0,   11.7,   0.00,   0.00, 1017.3,   98.7, -999.0
18-07-2023, 00:30:01,    232,    0.0,   11.7,   0.00,   0.00, 1017.4,   98.6, -999.0
18-07-2023, 00:30:11,    232,    0.0,   11.7,   0.00,   0.00, 1017.4,   98.7, -999.0
18-07-2023, 00:30:21,    232,    0.0,   11.7,   0.00,   0.00, 1017.4,   98.7, -999.0
18-07-2023, 00:30:31,    232,    0.0,   11.7,   0.00,   0.00, 1017.4,   98.6, -999.0
18-07-2023, 00:30:41,    232,    0.0,   11.8,   0.00,   0.00, 1017.4,   98.7, -999.0
18-07-2023, 00:30:51,    232,    0.0,   11.8,   0.00,   0.00, 1017.3,   98.7, -999.0
18-07-2023, 00:31:01,    232,    0.0,   11.7,   0.00,   0.00, 1017.3,   98.7, -999.0
18-07-2023, 00:31:11,    209,    0.0,   11.7,   0.00,   0.00, 1017.3,   98.6, -999.0
18-07-2023, 00:31:21,    209,    0.0,   11.7,   0.00,   0.00, 1017.4,   98.6, -999.0
18-07-2023, 00:31:31,    209,    0.0,   11.8,   0.00,   0.00, 1017.4,   98.7, -999.0
18-07-2023, 00:31:41,    209,    0.0,   11.7,   0.00,   0.00, 1017.4,   98.8, -999.0
18-07-2023, 00:31:51,    209,    0.0,   11.6,   0.00,   0.00, 1017.4,   98.6, -999.0
18-07-2023, 00:32:01,    209,    0.0,   11.7,   0.00,   0.00, 1017.4,   98.6, -999.0
18-07-2023, 00:32:11,    209,    0.0,   11.6,   0.00,   0.00, 1017.4,   98.7, -999.0
18-07-2023, 00:32:21,    209,    0.0,   11.7,   0.00,   0.00, 1017.4,   98.7, -999.0
18-07-2023, 00:32:31,    210,    0.0,   11.6,   0.00,   0.00, 1017.4,   98.7, -999.0
18-07-2023, 00:32:40,    209,    0.0,   11.6,   0.00,   0.00, 1017.4,   98.7, -999.0
18-07-2023, 00:32:51,    210,    0.0,   11.6,   0.00,   0.00, 1017.3,   98.7, -999.0
18-07-2023, 00:33:01,    209,    0.0,   11.6,   0.00,   0.00, 1017.3,   98.6, -999.0
18-07-2023, 00:33:10,    210,    0.0,   11.7,   0.00,   0.00, 1017.3,   98.7, -999.0
18-07-2023, 00:33:20,    209,    0.0,   11.6,   0.00,   0.00, 1017.3,   98.6, -999.0
18-07-2023, 00:33:31,    210,    0.0,   11.7,   0.00,   0.00, 1017.3,   98.6, -999.0
18-07-2023, 00:33:41,    210,    0.0,   11.7,   0.00,   0.00, 1017.3,   98.7, -999.0
18-07-2023, 00:33:50,    210,    0.0,   11.7,   0.00,   0.00, 1017.3,   98.7, -999.0
18-07-2023, 00:34:01,    213,    0.0,   11.6,   0.00,   0.00, 1017.3,   98.7, -999.0
18-07-2023, 00:34:11,    216,    0.0,   11.6,   0.00,   0.00, 1017.3,   98.6, -999.0
18-07-2023, 00:34:20,    217,    0.0,   11.6,   0.00,   0.00, 1017.3,   98.7, -999.0
18-07-2023, 00:34:30,    217,    0.0,   11.6,   0.00,   0.00, 1017.3,   98.6, -999.0
18-07-2023, 00:34:41,    220,    0.0,   11.6,   0.00,   0.00, 1017.3,   98.6, -999.0
18-07-2023, 00:34:50,    219,    0.0,   11.6,   0.00,   0.00, 1017.3,   98.7, -999.0
18-07-2023, 00:35:01,    219,    0.0,   11.6,   0.00,   0.00, 1017.3,   98.6, -999.0
18-07-2023, 00:35:10,    219,    0.0,   11.6,   0.00,   0.00, 1017.3,   98.6, -999.0
18-07-2023, 00:35:21,    219,    0.0,   11.6,   0.00,   0.00, 1017.3,   98.7, -999.0
18-07-2023, 00:35:30,    219,    0.0,   11.7,   0.00,   0.00, 1017.3,   98.6, -999.0
18-07-2023, 00:35:40,    219,    0.0,   11.7,   0.00,   0.00, 1017.3,   98.7, -999.0
18-07-2023, 00:35:50,    219,    0.0,   11.6,   0.00,   0.00, 1017.3,   98.7, -999.0
18-07-2023, 00:36:00,    219,    0.0,   11.6,   0.00,   0.00, 1017.3,   98.7, -999.0
18-07-2023, 00:36:10,    220,    0.0,   11.6,   0.00,   0.00, 1017.3,   98.6, -999.0
18-07-2023, 00:36:20,    220,    0.0,   11.6,   0.00,   0.00, 1017.3,   98.6, -999.0
18-07-2023, 00:36:30,    220,    0.0,   11.6,   0.00,   0.00, 1017.3,   98.7, -999.0
18-07-2023, 00:36:40,    220,    0.0,   11.7,   0.00,   0.00, 1017.3,   98.7, -999.0
18-07-2023, 00:36:50,    219,    0.0,   11.6,   0.00,   0.00, 1017.3,   98.7, -999.0
18-07-2023, 00:37:00,    217,    0.0,   11.6,   0.00,   0.00, 1017.3,   98.6, -999.0
18-07-2023, 00:37:10,    217,    0.0,   11.6,   0.00,   0.00, 1017.3,   98.7, -999.0
18-07-2023, 00:37:20,    217,    0.0,   11.6,   0.00,   0.00, 1017.3,   98.6, -999.0
18-07-2023, 00:37:30,    217,    0.0,   11.6,   0.00,   0.00, 1017.3,   98.7, -999.0
18-07-2023, 00:37:40,    217,    0.0,   11.7,   0.00,   0.00, 1017.3,   98.7, -999.0
18-07-2023, 00:37:50,    217,    0.0,   11.7,   0.00,   0.00, 1017.3,   98.6, -999.0
18-07-2023, 00:38:00,    218,    0.0,   11.7,   0.00,   0.00, 1017.3,   98.7, -999.0
18-07-2023, 00:38:10,    217,    0.0,   11.7,   0.00,   0.00, 1017.3,   98.7, -999.0
18-07-2023, 00:38:20,    217,    0.0,   11.7,   0.00,   0.00, 1017.3,   98.6, -999.0
18-07-2023, 00:38:30,    218,    0.0,   11.6,   0.00,   0.00, 1017.3,   98.6, -999.0
18-07-2023, 00:38:40,    218,    0.0,   11.7,   0.00,   0.00, 1017.3,   98.6, -999.0
18-07-2023, 00:38:50,    217,    0.0,   11.6,   0.00,   0.00, 1017.3,   98.7, -999.0
18-07-2023, 00:39:00,    219,    0.0,   11.6,   0.00,   0.00, 1017.3,   98.7, -999.0
18-07-2023, 00:39:10,    214,    0.0,   11.7,   0.00,   0.00, 1017.3,   98.7, -999.0
18-07-2023, 00:39:20,    219,    0.0,   11.6,   0.00,   0.00, 1017.3,   98.7, -999.0
18-07-2023, 00:39:30,    219,    0.0,   11.6,   0.00,   0.00, 1017.3,   98.6, -999.0
18-07-2023, 00:39:40,    219,    0.0,   11.6,   0.00,   0.00, 1017.3,   98.6, -999.0
18-07-2023, 00:39:50,    219,    0.0,   11.6,   0.00,   0.00, 1017.3,   98.6, -999.0
18-07-2023, 00:40:00,    219,    0.0,   11.6,   0.00,   0.00, 1017.3,   98.6, -999.0
18-07-2023, 00:40:10,    220,    0.0,   11.6,   0.00,   0.00, 1017.4,   98.6, -999.0
18-07-2023, 00:40:19,    219,    0.0,   11.6,   0.00,   0.00, 1017.3,   98.6, -999.0
18-07-2023, 00:40:30,    219,    0.0,   11.6,   0.00,   0.00, 1017.3,   98.7, -999.0
18-07-2023, 00:40:40,    220,    0.0,   11.6,   0.00,   0.00, 1017.4,   98.6, -999.0
18-07-2023, 00:40:49,    219,    0.0,   11.6,   0.00,   0.00, 1017.3,   98.7, -999.0
18-07-2023, 00:40:59,    219,    0.0,   11.7,   0.00,   0.00, 1017.4,   98.6, -999.0
18-07-2023, 00:41:10,    219,    0.0,   11.6,   0.00,   0.00, 1017.4,   98.6, -999.0
18-07-2023, 00:41:19,    220,    0.0,   11.6,   0.00,   0.00, 1017.4,   98.6, -999.0
18-07-2023, 00:41:29,    219,    0.0,   11.6,   0.00,   0.00, 1017.4,   98.6, -999.0
18-07-2023, 00:41:39,    219,    0.0,   11.6,   0.00,   0.00, 1017.4,   98.6, -999.0
18-07-2023, 00:41:50,    219,    0.0,   11.6,   0.00,   0.00, 1017.4,   98.6, -999.0
18-07-2023, 00:41:59,    220,    0.0,   11.6,   0.00,   0.00, 1017.4,   98.7, -999.0
18-07-2023, 00:42:09,    219,    0.0,   11.6,   0.00,   0.00, 1017.4,   98.6, -999.0
18-07-2023, 00:42:19,    219,    0.0,   11.6,   0.00,   0.00, 1017.4,   98.7, -999.0
18-07-2023, 00:42:29,    219,    0.0,   11.6,   0.00,   0.00, 1017.4,   98.7, -999.0
18-07-2023, 00:42:39,    219,    0.0,   11.7,   0.00,   0.00, 1017.4,   98.7, -999.0
18-07-2023, 00:42:49,    219,    0.0,   11.7,   0.00,   0.00, 1017.4,   98.6, -999.0
18-07-2023, 00:42:59,    219,    0.0,   11.6,   0.00,   0.00, 1017.4,   98.6, -999.0
18-07-2023, 00:43:09,    219,    0.0,   11.6,   0.00,   0.00, 1017.4,   98.7, -999.0
18-07-2023, 00:43:19,    220,    0.0,   11.6,   0.00,   0.00, 1017.4,   98.7, -999.0
18-07-2023, 00:43:29,    220,    0.0,   11.7,   0.00,   0.00, 1017.4,   98.7, -999.0
18-07-2023, 00:43:39,    219,    0.0,   11.6,   0.00,   0.00, 1017.4,   98.7, -999.0
18-07-2023, 00:43:49,    220,    0.0,   11.6,   0.00,   0.00, 1017.4,   98.6, -999.0
18-07-2023, 00:44:00,    220,    0.0,   11.6,   0.00,   0.00, 1017.4,   98.6, -999.0
18-07-2023, 00:44:09,    220,    0.0,   11.6,   0.00,   0.00, 1017.4,   98.6, -999.0
18-07-2023, 00:44:19,    220,    0.0,   11.6,   0.00,   0.00, 1017.4,   98.7, -999.0
18-07-2023, 00:44:29,    221,    0.0,   11.6,   0.00,   0.00, 1017.4,   98.6, -999.0
18-07-2023, 00:44:39,    221,    0.0,   11.6,   0.00,   0.00, 1017.4,   98.6, -999.0
18-07-2023, 00:44:49,    221,    0.0,   11.6,   0.00,   0.00, 1017.4,   98.6, -999.0
18-07-2023, 00:44:59,    222,    0.0,   11.6,   0.00,   0.00, 1017.4,   98.6, -999.0
18-07-2023, 00:45:09,    221,    0.0,   11.6,   0.00,   0.00, 1017.4,   98.6, -999.0
18-07-2023, 00:45:19,    221,    0.0,   11.6,   0.00,   0.00, 1017.4,   98.6, -999.0
18-07-2023, 00:45:29,    221,    0.0,   11.6,   0.00,   0.00, 1017.4,   98.7, -999.0
18-07-2023, 00:45:39,    220,    0.0,   11.5,   0.00,   0.00, 1017.4,   98.7, -999.0
18-07-2023, 00:45:49,    220,    0.0,   11.6,   0.00,   0.00, 1017.4,   98.7, -999.0
18-07-2023, 00:45:59,    220,    0.0,   11.6,   0.00,   0.00, 1017.4,   98.6, -999.0
18-07-2023, 00:46:09,    220,    0.0,   11.6,   0.00,   0.00, 1017.4,   98.6, -999.0
18-07-2023, 00:46:19,    220,    0.0,   11.6,   0.00,   0.00, 1017.4,   98.7, -999.0
18-07-2023, 00:46:29,    220,    0.0,   11.6,   0.00,   0.00, 1017.4,   98.6, -999.0
18-07-2023, 00:46:39,    221,    0.0,   11.6,   0.00,   0.00, 1017.4,   98.7, -999.0
18-07-2023, 00:46:49,    222,    0.0,   11.6,   0.00,   0.00, 1017.4,   98.7, -999.0